Location: Newark
(44.3681°N, 100.3364°W)
Time: 21:05:26
(UTC+00:00)

Vanguard 1 - Pass Details

Date: 21 February 2020
Orbit: 649 x 3833 km, 34.2° (Epoch: 05 April)

Event Time Altitude Azimuth Distance (km) Brightness Sun altitude
Rises 12:06:11 0° 195° (SSW) 7,852 14.5 -16.1°
Reaches altitude 10° 12:13:31 10° 183° (S) 6,929 14.3 -14.8°
Maximum altitude 12:28:58 23° 141° (SE) 5,532 14.4 -12.1°
Drops below altitude 10° 12:41:46 10° 98° (E) 5,756 15.6 -9.8°
Sets 12:46:51 0° 85° (E) 6,304 16.2 -8.9°
